GFSGBSN_700_rhum_105.txt.gz
RH
60 30 11 4 2 2 2 2 2 1 1 1 1 1 1 1 1 1 1 1 1 1 1 1 1 1 2 2 1 2 1 1 5 18 14 24 24 34 42 45 42 38 38 37 35 32 30
43 10 4 2 2 2 2 2 2 1 1 1 1 1 1 1 1 1 1 1 1 1 1 1 1 1 2 2 2 3 2 2 3 12 12 12 48 47 41 42 44 41 39 41 39 36 37
15 6 2 3 3 2 2 2 2 2 2 1 1 1 1 1 1 1 1 1 1 2 2 3 4 3 3 2 4 4 3 2 6 10 9 27 55 53 48 48 46 46 44 41 40 42 37
7 2 3 3 3 2 2 2 2 2 2 2 2 1 1 1 1 1 1 1 2 2 3 7 8 8 6 6 5 5 4 2 1 4 9 11 59 63 51 48 47 43 44 40 37 36 36
2 3 4 3 3 2 2 2 2 2 2 2 2 2 2 2 2 2 2 2 4 5 5 8 9 8 8 8 7 5 3 4 2 4 8 6 20 35 56 53 47 43 38 36 34 32 33
2 4 4 3 2 2 2 2 2 2 2 2 2 2 2 2 2 2 4 5 7 6 5 7 13 16 20 31 54 12 6 37 40 33 26 5 20 35 40 49 45 39 37 35 32 34 34
4 4 3 3 2 2 2 2 2 2 2 3 2 3 3 3 4 6 6 9 14 21 11 7 17 10 7 22 10 17 24 72 72 75 57 31 32 27 26 40 45 40 35 32 31 32 34
5 4 3 3 2 2 2 2 2 2 2 2 3 3 3 4 7 9 12 12 10 10 7 6 6 6 9 13 10 8 18 56 75 70 53 26 25 20 25 30 43 42 41 35 29 27 36
4 4 3 3 2 2 2 2 2 2 2 2 3 4 4 7 10 13 14 11 8 6 12 5 15 19 53 67 60 56 63 56 66 64 48 20 22 20 23 28 38 46 42 36 25 26 27
4 4 4 3 2 2 2 2 2 2 2 3 4 4 6 13 13 15 12 10 8 8 33 31 62 83 94 88 76 88 73 55 50 58 49 31 21 29 26 30 37 43 44 34 27 30 29
5 4 4 3 2 2 2 2 2 2 2 4 5 6 11 16 16 11 11 11 8 22 56 25 52 78 76 84 73 83 70 48 44 48 52 40 27 29 29 35 33 40 33 31 32 35 30
6 4 4 3 3 3 2 2 2 2 3 5 5 9 16 17 11 12 12 10 33 89 42 25 33 67 74 56 52 68 72 78 38 57 51 44 44 40 34 36 41 39 40 42 38 33 36
6 5 4 3 3 3 2 2 2 2 4 6 8 14 20 12 12 12 13 64 73 63 28 30 54 47 45 64 71 84 86 70 42 55 91 54 71 48 43 46 47 44 48 52 55 47 39
7 6 4 4 3 3 3 2 2 3 6 7 13 21 16 11 13 24 51 84 48 27 30 43 46 50 77 78 56 95 63 52 42 40 55 54 93 74 73 55 49 53 55 40 49 40 28
8 6 4 4 3 3 3 3 3 3 7 9 19 21 11 13 17 34 94 59 42 44 49 57 56 66 79 85 95 95 80 43 38 45 93 55 94 78 81 67 81 85 62 44 69 56 47
8 6 5 4 4 4 3 3 3 4 8 14 27 17 14 14 17 38 98 66 57 60 64 67 82 80 96 93 97 99 61 40 35 48 77 63 74 85 78 65 77 77 59 62 61 50 41
7 6 5 4 4 4 3 3 4 6 9 20 25 52 16 16 24 96 96 70 72 76 77 88 94 96 96 97 96 100 43 33 34 58 57 77 67 79 75 68 61 75 73 76 62 64 55
6 6 6 5 4 4 4 4 4 8 12 29 21 67 15 17 94 95 81 87 88 95 94 94 95 94 97 97 95 98 73 34 44 48 44 53 69 78 84 57 54 52 55 61 53 58 54
6 7 6 5 5 5 4 4 5 9 14 32 21 42 16 23 96 85 82 88 88 97 96 99 96 97 97 97 96 94 99 85 49 59 52 55 68 76 92 72 81 74 68 72 78 78 66
7 7 6 5 5 5 5 5 6 10 19 32 21 29 69 63 52 98 93 87 92 99 98 96 88 96 89 95 96 97 99 97 98 96 81 73 75 73 60 50 62 72 81 73 72 68 63
7 7 6 6 6 6 5 6 7 14 24 35 26 20 18 98 99 66 85 86 89 76 73 94 82 97 97 92 95 96 96 99 88 75 73 86 92 86 88 74 68 70 75 73 73 63 56
7 7 6 6 6 6 6 6 8 18 27 40 32 74 26 73 40 79 65 82 83 82 84 80 98 73 93 94 97 92 98 96 92 89 71 73 58 56 57 60 62 61 53 42 40 46 55
7 7 7 7 7 7 7 7 10 22 32 44 41 28 30 70 75 77 76 49 59 84 86 90 98 64 53 46 55 62 74 68 75 96 95 73 64 58 57 46 42 40 48 48 48 93 98
7 7 7 8 8 8 8 8 10 21 38 49 48 50 98 92 73 80 50 48 41 40 52 81 60 44 40 36 49 78 60 87 89 80 89 66 67 48 47 42 40 63 63 60 79 86 66
7 7 8 9 9 8 8 8 11 19 38 52 58 54 90 97 84 81 56 52 59 68 72 47 40 41 34 34 63 64 65 69 63 77 78 78 58 54 43 36 53 83 80 80 81 100 85
8 8 9 10 10 9 9 9 11 18 36 54 61 60 53 64 87 46 38 54 84 80 82 81 25 33 36 93 80 54 55 61 54 60 67 72 69 52 53 38 65 98 94 90 87 97 90
10 10 11 10 10 10 10 10 11 19 36 54 64 66 64 63 97 64 98 85 93 92 86 88 18 27 34 96 86 65 60 62 57 55 62 64 68 64 59 51 88 65 61 72 93 98 98
11 11 11 10 10 11 11 10 11 22 43 57 73 75 68 60 64 58 64 76 95 100 98 89 72 64 41 99 98 98 90 81 87 74 84 86 95 78 70 63 90 73 70 78 96 95 97
12 11 11 10 11 13 12 10 11 27 49 61 78 82 74 64 65 66 62 63 65 66 59 100 94 100 93 100 98 97 100 92 89 97 94 98 100 100 90 98 94 85 97 100 100 97 100

GFSGBSN_700_rhum_111.txt.gz
RH
99 98 100 96 87 82 59 20 7 4 2 2 2 1 1 1 1 1 1 1 1 1 1 1 1 1 1 1 1 2 1 1 1 1 1 1 2 6 6 19 22 34 31 43 42 44 38
100 99 100 100 98 88 48 10 5 4 4 2 1 1 1 1 1 1 1 1 1 1 1 1 2 2 1 2 2 2 1 1 1 1 1 2 2 2 6 26 49 30 31 39 43 46 43
100 100 100 100 100 95 41 6 3 2 2 1 2 1 1 1 1 1 1 1 1 1 1 2 2 2 2 2 2 2 2 2 2 2 2 2 18 19 19 40 48 53 45 37 36 41 42
100 100 100 100 99 99 51 9 3 2 2 2 2 2 2 2 2 1 1 1 1 1 2 2 2 2 2 2 3 3 5 5 6 5 4 4 8 16 19 26 44 49 50 50 32 38 40
98 100 100 100 99 99 48 18 3 2 2 2 2 2 2 1 1 1 1 1 1 2 2 2 2 2 2 4 6 8 12 23 15 7 6 13 17 12 20 30 50 51 55 50 45 42 38
98 100 100 100 100 99 52 21 7 2 2 2 2 1 1 1 1 1 1 1 2 2 3 3 3 3 6 7 20 55 66 58 78 66 62 81 76 44 23 33 47 53 60 55 50 44 42
100 100 99 100 100 92 31 17 5 2 2 2 1 1 1 1 1 1 1 2 3 2 2 2 2 4 9 16 20 24 43 50 47 44 46 48 86 69 53 26 26 51 61 56 44 42 42
99 98 100 100 100 62 29 20 11 4 2 1 1 1 1 1 1 1 2 2 2 3 2 9 20 35 48 44 39 41 64 48 32 49 36 40 54 79 68 53 31 32 47 52 46 40 38
98 98 100 100 95 76 36 24 8 2 2 3 1 1 1 1 2 2 2 3 3 5 11 37 54 66 78 65 54 60 81 83 89 76 70 50 34 65 63 59 36 31 29 30 35 41 45
100 100 100 100 93 35 27 11 2 6 13 1 1 1 1 1 4 3 4 4 10 24 38 47 45 40 33 34 37 51 39 72 74 93 80 76 35 41 57 53 40 29 26 26 29 30 61
99 99 98 85 41 33 18 2 11 17 2 2 2 2 1 2 4 4 4 8 28 48 57 28 24 24 30 34 34 27 38 48 62 82 89 82 45 38 49 51 38 25 23 23 28 74 88
97 97 93 62 25 14 3 15 18 2 2 2 2 2 2 4 5 4 5 28 42 58 49 28 32 43 51 57 61 56 44 58 65 63 50 58 59 43 46 63 53 28 24 49 50 72 89
97 93 72 23 16 6 9 12 6 2 2 2 2 3 4 6 5 4 19 38 52 35 36 37 44 53 64 72 62 59 62 48 78 92 71 46 47 42 46 48 44 40 39 76 74 95 78
95 58 23 18 11 8 24 11 2 2 2 2 3 4 6 8 4 7 37 36 48 43 45 49 64 61 70 78 82 81 69 64 80 92 83 75 38 38 47 62 43 41 42 72 77 90 63
57 34 23 16 14 37 15 3 3 2 3 3 4 6 12 6 5 19 43 50 48 54 61 70 75 83 70 76 95 89 83 77 63 73 86 56 35 44 57 50 48 38 41 46 71 68 77
63 23 14 15 37 26 4 3 3 3 3 4 5 8 10 7 12 38 48 64 63 68 73 80 95 91 97 90 96 80 81 69 89 58 52 60 70 81 55 65 50 34 40 54 68 92 95
30 24 34 24 45 5 4 4 4 4 4 5 9 12 22 9 50 49 67 60 71 74 87 95 91 97 100 98 92 87 81 70 67 60 32 46 73 96 82 76 58 56 51 59 85 89 97
19 59 14 56 13 5 4 4 4 4 5 8 13 29 17 11 65 74 78 78 75 73 99 88 96 97 94 83 65 87 99 97 99 95 64 62 92 98 99 81 84 71 75 69 95 99 94
81 25 49 33 7 5 5 5 5 5 7 13 18 35 28 13 65 93 76 80 82 79 88 88 96 96 87 73 85 92 89 98 98 79 83 91 98 90 92 98 98 89 76 72 99 98 98
37 37 61 10 7 6 5 5 5 6 7 15 22 44 58 31 34 64 75 79 84 81 67 82 92 90 72 64 69 95 95 86 94 82 74 72 80 92 97 97 90 81 95 98 85 96 98
76 81 18 9 7 6 6 6 6 6 9 14 23 37 36 80 88 44 74 87 79 76 70 79 80 66 96 66 67 91 100 75 78 76 64 58 91 74 99 94 99 96 97 99 99 76 97
56 38 11 9 8 6 6 6 6 7 10 18 28 43 22 77 45 32 83 85 57 68 71 76 76 48 68 69 85 90 94 97 87 75 72 91 94 90 99 98 69 96 94 82 98 98 98
50 12 10 8 8 6 7 7 7 8 11 19 33 39 59 84 66 70 80 70 65 72 59 76 76 44 32 47 54 78 92 72 71 76 78 81 92 90 95 93 78 95 96 91 98 100 100
30 27 17 9 8 7 7 8 7 8 9 20 25 32 25 79 63 64 67 63 63 74 76 79 80 44 29 40 38 61 71 80 68 65 72 93 83 76 82 88 93 97 100 99 75 97 100
74 56 12 9 8 7 8 8 8 8 14 17 30 44 44 79 95 79 71 64 61 83 75 94 83 48 23 59 56 68 56 70 67 66 68 79 85 84 82 96 97 73 81 92 92 98 89
13 10 10 10 8 8 8 9 8 9 11 19 28 44 50 53 82 85 72 80 82 63 63 79 55 33 30 80 81 74 64 74 81 76 58 60 68 83 76 77 96 81 76 90 100 96 90
28 15 12 10 8 8 9 9 9 9 12 16 28 47 49 53 82 72 44 56 79 63 56 53 41 30 24 58 88 79 86 79 89 97 95 56 64 81 88 96 77 69 57 82 89 99 99
36 18 17 10 9 9 10 10 9 10 11 17 35 50 50 43 44 43 41 35 33 43 41 38 36 50 40 55 64 85 88 92 93 88 99 71 92 82 86 89 93 79 66 71 98 99 99
82 46 22 11 10 11 11 11 10 10 12 25 37 43 56 48 45 44 47 45 49 53 49 45 69 84 82 60 77 88 91 91 87 90 82 86 94 85 92 98 100 97 92 100 99 98 98

GFSGBSN_700_rhum_114.txt.gz
RH
95 96 94 90 94 97 94 96 82 53 19 7 7 2 2 2 1 1 1 1 1 1 1 1 1 1 2 2 2 2 2 2 1 1 1 1 1 2 2 4 14 18 9 17 22 36 33
88 99 99 89 100 100 98 98 98 66 15 7 18 12 17 3 1 1 1 1 1 1 1 1 1 2 2 2 2 2 2 2 2 2 2 2 2 3 4 3 11 18 20 20 20 27 34
100 98 98 98 99 99 100 99 99 59 30 6 2 1 1 1 1 1 1 1 1 1 1 1 1 2 2 3 3 3 3 4 3 4 4 4 5 7 7 9 7 14 44 25 22 16 29
95 80 100 96 92 100 98 99 98 88 43 4 1 2 2 1 1 1 1 1 1 1 1 1 2 2 2 3 5 5 5 8 11 10 10 12 13 17 29 30 27 28 44 48 2 30 35
87 86 99 99 100 99 100 100 99 87 49 23 2 2 2 2 1 1 1 1 1 1 1 2 2 2 3 5 7 15 20 16 13 16 14 31 29 26 29 39 39 33 34 36 33 45 51
98 100 96 99 100 100 99 100 99 91 56 22 2 2 2 1 1 1 1 1 1 1 2 3 2 3 6 8 9 19 18 37 40 39 34 46 49 74 78 54 48 37 36 36 45 38 50
94 99 100 97 100 100 100 100 100 96 37 16 6 2 1 1 1 1 1 1 1 2 3 2 2 4 21 28 36 36 41 29 40 55 52 49 44 46 62 78 74 50 47 40 47 42 53
93 98 99 77 100 98 100 100 100 62 31 18 13 2 1 1 1 1 1 1 2 3 3 6 23 27 19 24 28 17 27 53 57 48 62 56 61 41 32 53 90 75 66 52 31 37 56
62 99 95 100 99 98 100 100 81 38 38 21 10 1 4 7 2 1 2 2 3 2 10 35 26 21 29 29 24 21 49 41 39 37 55 77 57 67 67 37 58 79 69 53 34 22 39
99 93 100 97 100 100 99 98 61 62 26 11 6 13 4 1 3 1 2 3 3 8 29 26 27 31 36 41 30 33 37 40 42 34 45 64 62 72 80 58 42 94 62 54 33 33 34
100 97 82 97 100 100 100 98 44 32 11 6 5 2 2 2 1 3 4 3 12 24 42 22 27 34 44 54 51 48 49 60 58 49 53 26 29 43 84 49 41 77 76 65 32 28 38
100 99 99 90 99 99 97 65 55 14 6 3 2 2 2 2 3 4 4 10 19 27 37 28 32 36 36 45 47 52 62 71 75 66 64 41 44 61 41 38 46 49 60 54 47 46 72
100 99 98 100 99 97 89 61 18 7 4 4 2 2 2 3 5 4 5 24 24 30 32 37 40 37 45 58 53 76 87 89 95 68 67 64 48 49 54 48 43 53 65 76 67 81 75
99 100 100 97 95 96 67 16 8 4 10 2 2 2 3 6 6 4 15 30 28 37 48 55 63 48 53 66 66 86 98 91 92 96 100 81 53 38 43 43 44 46 51 54 71 87 73
99 96 95 96 86 53 12 7 6 26 3 3 3 3 6 7 5 10 34 24 46 57 71 73 58 66 68 86 99 100 100 99 99 100 87 77 54 39 47 56 71 49 56 42 42 55 73
97 96 96 78 69 18 8 15 27 4 3 3 4 8 12 7 9 30 45 46 60 72 69 67 88 87 96 95 98 98 92 87 82 94 91 73 62 57 61 62 69 68 44 55 55 84 94
97 95 72 75 18 14 28 39 4 5 3 4 7 13 14 11 38 50 38 56 75 76 60 65 80 91 94 99 82 98 96 88 98 92 96 84 58 53 72 65 63 57 54 49 51 66 99
89 78 75 22 45 16 41 5 4 4 4 6 10 23 13 29 62 48 57 72 74 72 52 65 76 88 97 94 78 95 98 100 98 99 95 84 92 93 98 83 76 67 50 45 52 84 80
79 87 28 32 13 47 10 5 5 5 5 8 17 43 18 50 80 72 66 85 85 66 55 64 83 95 83 85 91 88 90 86 95 91 94 96 95 89 95 86 79 82 72 62 64 80 98
95 28 40 15 54 37 6 6 5 4 7 11 28 45 25 36 74 72 69 75 77 64 60 64 78 80 64 80 95 97 94 76 75 84 72 87 91 100 97 92 95 99 92 91 97 95 98
64 49 54 45 68 10 6 6 5 5 7 15 34 42 49 49 37 56 64 63 58 54 53 73 70 62 57 79 71 93 84 65 76 88 74 80 95 98 100 99 93 99 99 99 99 93 94
68 92 26 80 42 8 7 6 6 6 9 20 36 42 26 53 58 65 64 61 52 63 61 73 71 45 38 38 59 79 86 91 81 86 85 68 90 95 97 98 96 97 97 98 98 98 97
92 73 45 86 16 9 7 6 6 6 9 18 23 38 56 48 65 66 68 60 46 66 68 81 76 41 29 32 45 63 72 86 81 97 96 88 83 89 97 97 91 90 98 96 97 95 98
94 76 85 65 13 9 7 10 7 7 10 19 30 42 62 63 67 71 76 69 54 81 84 80 57 32 26 26 47 58 50 71 84 93 89 84 76 77 96 83 86 97 98 97 98 100 100
94 94 75 43 24 11 16 7 7 8 10 18 35 35 50 65 75 78 73 65 46 68 85 65 36 36 22 44 54 66 61 64 77 90 80 86 88 88 96 95 97 95 97 99 100 100 99
94 86 36 26 38 22 14 7 8 8 10 17 32 47 62 67 74 72 63 58 32 36 56 49 49 45 31 46 75 84 85 82 77 60 70 87 89 83 97 90 95 94 100 99 82 99 100
94 72 58 59 34 10 8 8 8 8 10 17 28 39 49 66 61 54 46 31 33 41 36 30 33 32 24 24 62 87 93 94 91 90 79 66 62 88 87 86 89 88 100 99 91 97 99
93 94 80 53 25 13 10 8 8 8 10 15 23 31 46 44 58 56 28 32 33 32 29 22 24 46 30 33 52 87 92 96 97 91 99 76 85 79 81 82 91 79 86 82 95 97 99
67 40 32 19 10 10 8 8 9 9 11 13 19 34 48 49 42 32 41 42 46 47 39 27 46 58 63 47 64 90 96 94 98 94 81 78 91 87 97 95 100 97 86 91 95 100 96

GFSGBSN_700_rhum_117.txt.gz
RH
86 87 83 92 95 92 96 90 94 88 89 93 75 23 16 5 2 12 10 2 1 1 1 1 1 1 1 2 2 2 3 2 2 2 2 2 2 2 2 3 4 3 6 5 12 16 17
93 88 88 90 94 82 99 94 97 90 93 96 80 28 30 32 24 24 3 1 1 1 1 1 1 1 1 2 2 3 3 3 3 3 3 3 2 3 3 4 7 7 6 7 6 4 21
100 97 86 85 87 86 93 89 95 98 100 91 78 46 35 4 4 2 1 1 1 1 1 1 1 1 2 2 3 3 4 4 5 5 4 4 4 6 8 13 12 9 8 4 2 8 14
49 96 87 89 89 87 85 97 89 99 87 91 94 82 23 2 1 1 1 1 1 1 1 1 1 2 3 3 5 6 6 7 8 8 10 10 8 8 20 23 24 28 25 28 6 13 17
14 17 47 100 76 97 90 98 99 100 98 98 95 63 13 15 2 1 1 1 1 1 1 1 2 2 4 6 8 10 12 16 20 21 22 24 33 29 30 41 40 42 42 40 18 14 22
18 24 18 55 100 100 88 97 100 99 100 98 94 48 34 11 2 1 1 1 1 1 1 2 3 4 8 15 18 18 15 14 12 18 36 39 38 54 61 68 68 57 48 37 36 13 25
22 33 34 28 77 99 95 100 99 100 100 100 93 80 24 3 6 1 1 1 1 1 2 3 4 6 17 15 13 15 11 13 20 26 33 42 45 51 31 40 49 59 76 84 71 28 21
28 42 43 38 46 95 99 100 87 98 100 100 99 38 7 12 3 2 1 1 1 2 3 5 13 21 14 16 12 13 13 24 26 31 31 37 41 39 51 48 46 45 56 72 66 30 60
34 39 84 87 42 85 100 100 99 100 100 100 75 25 14 15 2 5 11 4 1 2 3 13 22 16 21 25 24 26 44 42 34 38 35 36 21 43 64 54 61 68 48 43 76 63 70
34 43 98 73 100 67 99 96 100 100 99 97 51 20 24 2 10 6 3 2 2 2 6 19 20 25 29 36 39 37 41 43 40 48 46 42 27 38 44 41 40 77 54 50 66 86 61
32 38 90 96 99 67 61 95 98 96 99 88 37 38 5 9 4 3 4 2 3 5 34 22 24 26 35 41 45 40 45 47 51 58 74 38 49 55 53 28 47 56 45 49 86 84 67
54 64 91 100 93 99 86 87 99 99 96 78 46 8 6 2 2 3 3 4 6 23 31 23 30 34 31 35 51 56 66 61 56 56 57 47 56 62 35 45 56 63 45 59 60 64 67
83 100 100 84 99 99 99 100 99 99 78 38 8 5 3 2 4 3 4 5 17 23 24 30 28 31 47 42 46 53 61 76 84 90 75 62 43 39 65 81 69 71 61 82 74 80 81
99 100 89 91 100 96 100 99 99 94 68 18 9 4 3 3 3 4 4 23 26 31 33 36 35 49 50 55 50 51 69 65 78 98 95 88 70 53 48 54 56 46 43 76 70 74 67
100 99 99 100 99 97 99 98 96 84 22 13 5 4 5 4 5 5 12 27 30 41 38 39 53 59 58 66 73 78 77 73 99 99 97 97 74 64 59 64 62 52 55 50 63 55 79
99 99 98 98 99 98 96 95 66 16 20 10 4 10 6 6 6 8 23 33 48 52 48 50 67 71 85 68 76 80 82 91 97 100 96 83 95 61 63 62 60 53 67 65 65 71 83
95 96 96 95 95 97 94 48 14 13 9 6 7 14 9 8 8 22 37 45 55 56 48 51 70 77 80 82 77 82 89 92 100 96 100 99 99 65 97 79 67 68 66 70 55 59 96
98 96 97 96 96 91 39 12 13 34 13 8 8 20 11 14 28 35 52 64 67 62 44 58 68 67 72 80 72 81 93 97 100 100 92 97 99 97 75 90 95 88 70 64 50 60 74
96 97 96 95 80 27 13 42 56 10 9 11 12 20 16 21 41 44 68 76 79 55 47 61 67 68 68 92 80 87 94 95 92 100 93 95 99 97 70 72 89 96 77 63 52 67 96
97 96 94 86 25 17 63 70 7 7 7 12 15 29 17 36 52 49 72 83 61 51 53 56 62 55 54 58 63 81 88 84 93 97 94 98 97 98 97 98 98 98 83 86 66 84 97
95 95 87 28 41 33 82 12 6 6 8 13 18 24 15 32 55 61 69 67 61 50 45 51 59 56 49 44 39 62 79 82 83 96 95 94 96 97 96 97 100 100 97 98 82 92 94
95 95 35 72 29 58 22 10 6 7 11 12 14 17 29 27 44 64 67 61 57 51 46 54 50 45 45 39 34 46 80 84 85 74 95 96 95 98 94 96 97 96 96 97 96 95 95
96 57 56 28 57 54 17 6 7 8 10 6 10 19 26 54 47 65 62 57 51 54 68 51 35 34 31 28 28 57 69 78 96 93 96 95 94 93 97 87 69 85 96 96 97 97 95
95 60 74 29 84 33 8 7 7 7 6 7 12 24 32 39 42 54 55 58 51 48 54 47 38 38 31 26 26 52 65 73 90 96 85 88 91 88 97 91 88 96 96 96 95 96 96
95 89 66 64 69 11 8 7 7 7 6 7 16 40 41 59 63 64 68 70 64 54 56 32 38 38 27 27 50 59 64 75 95 95 88 99 89 97 89 94 96 96 96 94 93 98 98
97 95 85 70 71 14 11 8 13 14 6 8 17 33 52 57 67 66 63 60 39 37 53 42 39 28 31 24 68 81 91 94 80 68 76 88 97 96 94 86 94 96 95 82 83 100 98
96 96 86 92 62 27 9 20 40 8 7 9 15 26 42 66 58 65 64 34 21 30 34 23 30 31 31 24 57 79 88 98 88 89 86 63 72 94 87 94 92 94 97 93 96 94 92
96 96 96 95 54 21 20 42 15 7 8 8 14 26 50 53 55 58 43 19 21 22 26 20 18 32 28 26 59 85 86 90 97 97 99 87 92 84 86 83 93 89 98 89 94 96 96
96 96 94 86 44 38 42 37 9 8 8 8 13 21 38 52 54 39 35 36 39 44 31 20 29 34 40 33 62 88 95 86 81 86 82 76 93 92 95 98 99 97 88 90 96 100 100

GFSGBSN_700_rhum_120.txt.gz
RH
97 99 97 84 94 87 73 84 92 84 84 89 84 86 85 54 17 18 15 15 40 33 4 1 1 1 1 1 1 2 2 2 3 3 3 2 2 2 2 2 2 2 2 2 4 6 8
28 68 98 93 88 92 84 92 88 90 81 84 83 92 83 73 21 30 37 30 18 4 1 1 1 1 1 1 2 2 3 3 3 4 4 4 4 4 3 3 3 3 3 3 3 5 9
10 21 34 90 100 96 90 96 89 94 97 81 91 83 80 80 55 54 16 5 2 1 1 1 1 1 1 1 2 2 3 4 5 6 6 7 7 8 7 7 7 7 6 4 4 6 8
7 7 9 17 85 100 100 97 86 85 98 89 87 98 86 89 82 52 5 1 1 1 1 1 1 1 1 2 3 5 7 8 8 10 14 16 18 18 16 16 13 13 13 14 11 11 10
11 9 8 11 12 63 82 100 88 95 81 97 92 88 96 93 80 45 6 2 1 1 1 1 1 1 3 7 8 11 12 9 8 8 8 15 27 34 34 28 26 33 23 21 15 23 25
17 16 11 11 10 14 73 100 100 100 96 96 100 94 93 90 84 46 26 2 1 1 1 1 2 3 7 10 12 13 12 12 11 13 15 26 39 30 35 48 63 54 56 54 55 40 36
24 25 24 15 18 20 20 70 92 90 100 94 92 97 100 91 90 62 10 2 1 1 2 1 2 3 7 11 12 16 12 13 18 18 25 28 32 23 33 42 46 49 48 47 44 31 37
9 19 27 29 20 30 38 31 87 97 100 94 100 100 100 99 81 36 4 3 1 3 2 2 2 9 12 13 12 17 18 25 22 24 30 38 31 22 29 36 52 47 59 51 44 41 50
2 2 17 32 33 38 62 76 39 65 100 100 100 99 99 99 68 5 6 3 2 6 3 5 6 14 16 14 15 23 23 28 27 30 43 52 33 40 36 41 55 44 55 54 60 61 48
1 1 6 29 42 53 62 70 69 85 96 100 100 99 100 96 39 8 9 3 8 4 4 10 15 20 17 21 26 25 37 41 55 52 59 45 45 47 44 42 57 51 40 53 65 66 72
1 1 11 31 40 48 75 73 83 99 94 98 100 100 99 96 23 17 7 7 4 3 14 17 21 22 23 28 25 34 47 52 53 50 70 51 57 71 65 36 64 55 63 62 54 59 64
1 8 29 35 41 46 47 69 98 94 79 99 100 99 99 49 22 12 6 3 3 7 24 18 24 26 25 30 32 41 53 63 55 56 50 54 49 43 42 39 57 61 82 62 64 63 84
8 22 32 38 48 54 87 76 96 98 91 96 100 98 67 69 25 5 3 4 9 14 13 24 27 29 27 28 37 46 58 68 77 81 64 44 48 48 50 42 50 66 84 78 80 95 80
45 34 39 46 44 84 92 81 96 99 100 98 100 97 84 24 6 6 5 7 16 18 21 28 26 38 40 30 42 54 56 61 89 99 89 97 61 52 59 64 53 54 64 66 74 74 89
100 97 54 64 90 97 91 98 99 100 98 99 98 82 16 7 7 6 6 29 19 22 23 26 28 41 42 46 57 63 63 77 100 92 98 94 69 58 68 71 82 59 54 43 56 70 75
99 99 99 100 100 81 100 99 99 93 99 98 65 15 12 9 8 8 19 25 24 27 30 35 41 44 45 58 61 64 76 84 99 95 97 97 98 68 66 84 66 80 72 83 77 92 83
99 98 98 99 99 99 98 99 99 98 96 65 18 16 12 10 8 13 37 29 31 34 36 38 46 52 55 57 61 70 80 92 95 89 95 98 98 72 84 86 86 78 91 80 82 86 96
89 94 96 96 97 97 97 97 96 95 68 19 15 15 12 11 16 28 38 38 43 41 35 43 52 52 67 64 65 81 87 97 96 94 81 100 94 97 70 92 85 100 89 77 76 59 73
97 97 97 95 94 95 97 96 95 44 18 27 14 14 15 11 16 33 41 51 52 42 43 52 54 59 68 70 68 80 79 93 99 93 94 94 96 98 70 83 93 89 85 84 79 68 99
94 95 96 96 98 97 96 64 17 26 24 19 17 28 20 22 31 30 49 62 57 51 46 52 53 54 52 51 53 65 55 80 90 92 97 98 98 96 97 98 97 87 86 93 81 73 95
96 96 96 97 96 80 35 23 22 27 28 18 24 20 19 28 37 37 60 59 58 49 50 53 54 46 46 41 39 41 60 68 88 96 99 97 97 97 97 96 98 98 98 98 88 97 89
97 96 97 94 66 34 17 39 63 23 17 15 12 15 14 22 39 46 62 64 59 52 50 50 41 49 42 34 33 32 66 83 89 92 99 96 97 97 95 90 96 97 96 97 97 95 95
96 97 94 69 43 35 90 70 9 14 16 9 17 17 15 21 43 47 45 56 55 52 55 47 37 33 35 30 28 36 68 80 89 93 83 95 99 97 91 74 74 79 96 96 98 96 96
97 95 74 34 32 94 51 8 8 9 9 20 17 15 14 18 26 37 50 62 52 51 56 57 48 37 35 26 27 41 66 72 92 88 82 91 97 96 96 88 88 95 96 97 95 96 97
96 79 87 87 44 84 10 8 7 9 11 28 18 11 14 22 27 38 47 49 51 45 52 47 40 27 28 26 47 67 68 82 97 93 80 86 97 97 88 97 94 96 96 94 95 96 99
95 92 82 29 68 76 12 7 8 9 22 14 8 12 20 21 34 40 46 49 51 42 47 41 33 20 26 25 66 74 74 81 84 66 70 83 97 97 94 86 93 95 89 83 88 98 96
96 93 93 79 95 21 9 7 8 11 16 9 11 14 28 34 39 53 55 55 43 31 26 29 26 23 27 26 72 79 90 86 83 78 71 60 88 95 93 99 95 99 95 92 96 94 93
95 96 94 91 90 19 10 8 10 27 26 7 10 16 26 28 46 53 56 41 19 17 19 15 20 30 31 34 56 79 87 90 91 79 82 88 94 95 95 92 93 97 96 83 89 94 94
94 95 95 95 88 50 11 11 43 47 8 7 11 16 23 42 43 49 44 21 31 36 26 18 24 36 34 30 54 81 91 85 89 81 76 74 84 88 88 95 99 97 92 85 88 89 92

GFSGBSN_700_rhum_123.txt.gz
RH
37 56 79 60 84 72 87 90 90 83 98 97 92 86 78 76 74 72 46 30 52 46 40 17 2 1 1 1 1 1 1 2 2 2 3 3 3 3 3 3 3 3 3 3 3 4 4
10 11 14 39 79 72 89 85 93 94 83 92 100 92 87 76 82 73 64 58 62 37 12 4 1 1 1 1 2 2 2 2 3 3 4 4 4 4 4 4 4 4 4 4 4 4 5
6 6 8 10 12 19 34 97 100 98 93 93 96 95 94 84 84 80 72 72 61 14 6 3 1 1 1 1 1 2 2 3 4 5 6 6 5 6 7 8 8 8 7 7 8 10 10
9 7 6 6 7 9 15 44 68 94 95 100 98 92 95 99 89 83 75 77 52 10 5 2 1 1 1 1 1 2 5 6 8 7 6 5 5 5 6 8 10 13 10 12 16 22 22
11 11 9 8 8 7 8 11 36 73 73 100 96 100 95 95 94 93 93 80 39 22 4 1 1 1 1 4 7 8 8 8 7 7 7 8 9 10 10 15 20 17 25 17 25 23 28
14 15 16 14 16 13 9 9 11 50 92 96 100 90 100 84 92 91 89 84 44 37 3 1 1 4 6 7 6 7 7 9 11 11 13 14 15 14 19 24 38 36 40 43 50 30 44
2 3 4 10 17 21 21 14 15 21 64 87 100 99 100 100 95 92 85 83 53 20 2 2 2 2 2 6 8 10 11 12 13 13 20 22 20 24 31 25 25 42 53 54 26 20 55
2 2 2 2 2 6 21 22 22 29 34 99 99 88 100 100 99 99 95 91 64 9 6 4 3 3 4 8 11 12 14 15 16 20 24 26 25 29 31 30 28 33 56 42 29 19 54
2 2 2 2 2 2 4 22 32 40 68 36 94 99 100 100 100 100 99 98 44 4 2 4 5 6 8 12 12 15 15 21 24 27 30 29 36 43 51 48 37 38 53 41 51 28 25
1 1 1 1 2 2 2 9 44 92 46 47 50 91 100 100 97 100 99 86 6 3 6 11 14 19 18 17 17 17 24 33 38 35 37 41 52 54 58 51 56 70 57 56 48 73 66
1 1 1 1 1 1 2 2 16 26 49 74 99 76 100 100 100 99 96 25 5 5 10 18 20 17 18 20 24 27 32 42 38 39 51 51 59 48 36 40 38 41 54 55 53 80 78
1 1 1 1 1 1 1 2 3 26 59 78 96 90 100 99 100 99 85 12 7 6 13 18 19 20 22 26 28 36 45 46 40 46 54 45 52 35 37 53 43 57 60 56 53 83 78
2 1 1 1 1 1 1 2 17 29 60 92 96 98 93 99 99 98 29 28 8 11 16 22 22 24 24 28 33 41 51 59 58 62 63 44 39 38 53 65 46 54 71 58 63 88 59
1 1 1 2 4 2 7 22 30 44 67 100 89 94 99 100 98 53 54 17 10 12 12 20 22 26 31 33 42 48 53 68 73 86 100 72 62 48 61 67 67 65 59 52 54 47 45
2 26 34 48 32 24 34 37 43 54 95 87 98 94 98 100 67 66 13 17 9 12 12 21 26 37 36 37 39 57 66 82 88 94 100 99 82 67 76 73 77 79 62 55 64 61 66
46 72 93 48 38 37 44 49 66 96 100 97 98 99 97 72 90 31 11 18 13 12 12 22 26 32 39 44 51 58 72 89 94 91 90 91 95 72 76 73 86 84 74 87 85 82 89
98 97 98 98 99 100 97 100 100 92 98 99 98 97 96 89 20 14 26 27 16 21 20 28 24 31 40 48 55 65 81 87 86 77 87 91 95 76 81 81 90 92 96 95 89 84 86
96 96 98 99 98 100 100 100 100 100 98 100 97 95 71 22 20 36 48 22 18 24 28 29 32 37 48 54 66 71 85 84 85 79 87 90 97 100 83 83 90 86 92 96 91 73 90
98 94 86 94 96 97 97 98 99 99 98 97 91 62 22 17 45 59 50 30 22 30 32 33 37 47 54 61 66 70 67 89 85 90 98 98 89 92 65 83 72 91 91 98 98 98 99
96 97 96 97 97 95 94 96 96 96 96 96 52 35 32 33 39 39 30 33 43 44 35 37 40 54 56 55 58 48 66 81 79 92 99 98 93 90 94 97 98 99 96 93 98 94 96
89 96 96 96 96 97 97 98 97 97 93 62 38 30 27 41 35 34 27 41 46 44 40 44 43 49 47 43 42 35 68 75 84 96 87 92 95 98 93 95 96 99 100 100 98 97 95
94 97 96 96 97 97 97 97 96 78 42 42 38 41 31 40 38 38 51 63 52 44 36 35 38 40 39 37 34 34 62 74 76 84 88 90 95 96 97 96 96 95 98 96 98 94 96
94 97 96 97 97 96 90 78 74 80 61 34 29 28 33 29 35 45 46 56 64 46 44 38 37 41 36 34 30 32 59 71 76 81 70 85 97 94 97 96 95 88 96 97 96 94 94
98 97 96 95 90 82 82 85 61 34 31 38 24 23 38 23 49 50 47 52 57 52 38 42 44 35 30 28 26 36 63 68 79 86 86 74 85 98 96 96 90 96 95 96 94 95 97
97 97 95 81 61 43 58 72 74 38 47 46 20 17 11 18 51 52 46 52 48 47 46 48 40 27 27 26 36 74 78 83 95 94 87 76 81 98 97 97 96 98 97 96 95 96 96
97 95 92 50 58 85 61 30 22 30 39 28 20 27 16 18 48 38 47 55 45 37 35 33 29 18 26 26 59 74 69 77 86 80 91 71 75 96 87 85 86 94 96 94 90 91 94
97 94 88 63 91 31 13 13 16 22 23 22 27 16 24 24 32 39 41 44 38 28 21 24 24 18 22 26 66 75 79 79 77 64 61 59 79 94 97 97 91 95 88 88 94 88 93
96 95 75 52 84 52 13 11 14 19 25 27 15 24 33 31 44 52 48 38 18 15 16 16 19 21 24 30 58 69 82 87 84 70 68 70 77 90 95 96 94 95 97 91 91 92 92
96 97 94 67 91 59 13 11 13 19 24 12 14 23 38 37 40 51 48 21 15 15 17 12 13 20 26 31 39 63 81 87 92 86 79 73 74 72 84 93 93 97 96 92 93 98 97